Weather History for Sivas, Turkey

Change the Weather History Date:

Tuesday, October 2, 2012

  Actual Average Record
Temperature  
Mean Temperature 68 °F -  
Max Temperature 86 °F 63 °F - ()
Min Temperature 51 °F 39 °F - ()
Cooling Degree Days 4    
Growing Degree Days 18 (Base 50)    
Moisture  
Dew Point 30 °F    
Average Humidity 28    
Maximum Humidity 46    
Minimum Humidity 13    
Precipitation  
Precipitation 0.00 in 0.04 in - ()
Sea Level Pressure  
Sea Level Pressure 30.28 in    
Wind  
Wind Speed 6 mph ()    
Max Wind Speed 17 mph    
Max Gust Speed -    
Visibility 6.5 miles    
Events      
T = Trace of Precipitation, MM = Missing Value Source: Averaged Metar Reports

Daily Weather History Graph

Daily Weather History Graph

Search for Another Location

Airport:

Trip Planner

Search our weather history database for the weather conditions in past years. The results will help you decide how hot, cold, wet, or windy it might be!

Date:

Astronomy

Oct. 02, 2012 Rise Set
Actual Time 6:29 AM EEST 6:12 PM EEST
Civil Twilight 6:02 AM EEST 6:39 PM EEST
Nautical Twilight 5:31 AM EEST 7:11 PM EEST
Astronomical Twilight 4:59 AM EEST 7:42 PM EEST
Moon 7:13 PM EEST (10/2) 8:36 AM EEST (10/2)
Length of Visible Light 12h 37m
Length of Day
11h 43m
Waning Gibbous, 95% of the Moon is Illuminated
Oct 2
Waning Gibbous
Oct 8
Last Quarter
Oct 15
New
Oct 22
First Quarter
Oct 29
Full

Hourly Weather History & Observations

Time (EEST) Temp. Dew Point Humidity Pressure Visibility Wind Dir Wind Speed Gust Speed Precip Events Conditions
12:50 AM 55.4 °F 28.4 °F 36% 30.33 in 6.2 mi ESE 5.8 mph - N/A   Scattered Clouds
1:50 AM 51.8 °F 28.4 °F 41% 30.33 in 6.2 mi SE 6.9 mph - N/A   Scattered Clouds
2:50 AM 53.6 °F 26.6 °F 35% 30.30 in 6.2 mi ESE 4.6 mph - N/A   Scattered Clouds
3:00 AM 52 °F 37 °F 46%  in 9 mi Calm Calm - -   Partly Cloudy
3:50 AM 53.6 °F 28.4 °F 38% 30.30 in 6.2 mi East 5.8 mph - N/A   Scattered Clouds
4:50 AM 53.6 °F 30.2 °F 41% 30.30 in 6.2 mi ESE 9.2 mph - N/A   Scattered Clouds
6:50 AM 53.6 °F 30.2 °F 41% 30.30 in 6.2 mi ESE 4.6 mph - N/A   Mostly Cloudy
7:50 AM 60.8 °F 30.2 °F 31% 30.30 in 6.2 mi ESE 6.9 mph - N/A   Scattered Clouds
8:50 AM 64.4 °F 28.4 °F 26% 30.30 in 6.2 mi East 10.4 mph - N/A   Scattered Clouds
9:00 AM 61 °F 31 °F 21%  in 9 mi Calm Calm - -   Clear
9:50 AM 69.8 °F 24.8 °F 18% 30.30 in 6.2 mi East 11.5 mph - N/A   Mostly Cloudy
10:50 AM 73.4 °F 24.8 °F 16% 30.30 in 6.2 mi SE 9.2 mph - N/A   Mostly Cloudy
11:50 AM 75.2 °F 30.2 °F 19% 30.30 in 6.2 mi South 6.9 mph - N/A   Mostly Cloudy
12:50 PM 77.0 °F 32.0 °F 19% 30.27 in 6.2 mi SW 6.9 mph - N/A   Scattered Clouds
1:50 PM 77.0 °F 32.0 °F 19% 30.24 in 6.2 mi West 6.9 mph - N/A   Scattered Clouds
2:50 PM 77.0 °F 30.2 °F 18% 30.24 in 6.2 mi SW 11.5 mph - N/A   Scattered Clouds
3:50 PM 77.0 °F 28.4 °F 17% 30.24 in 6.2 mi WSW 16.1 mph - N/A   Scattered Clouds
4:50 PM 77.0 °F 23.0 °F 13% 30.24 in 6.2 mi WSW 17.3 mph - N/A   Scattered Clouds
5:50 PM 73.4 °F 23.0 °F 15% 30.24 in 6.2 mi West 10.4 mph - N/A   Mostly Cloudy
6:50 PM 68.0 °F 32.0 °F 26% 30.24 in 6.2 mi NNW 9.2 mph - N/A   Mostly Cloudy
7:50 PM 62.6 °F 32.0 °F 32% 30.27 in 6.2 mi North 4.6 mph - N/A   Mostly Cloudy
8:50 PM 59.0 °F 32.0 °F 36% 30.27 in 6.2 mi Calm Calm - N/A   Mostly Cloudy
9:00 PM 67 °F 35 °F 19%  in 9 mi SSE 2.3 mph - -   Scattered Clouds
9:50 PM 57.2 °F 33.8 °F 41% 30.27 in 6.2 mi South 6.9 mph - N/A   Mostly Cloudy
10:50 PM 59.0 °F 32.0 °F 36% 30.27 in 6.2 mi WSW 4.6 mph - N/A   Mostly Cloudy
11:50 PM 62.6 °F 33.8 °F 34% 30.24 in 6.2 mi WSW 6.9 mph - N/A   Mostly Cloudy